Dewpoint
52 54 53 54 54 54 54 55 55 55 56 56 56 55 55 55 56 56 56 57 57 57 57 57 58 58 49 43 40 49 52 51 51 50 47 45 42 41 38 38 39 38 38 38 39 39 37
52 53 53 54 54 54 54 54 55 55 56 56 55 55 55 55 55 56 56 56 56 57 57 57 57 57 47 37 45 47 48 49 49 48 46 45 44 44 41 40 38 39 38 38 39 38 37
52 54 53 53 53 53 54 54 55 56 55 55 56 55 55 56 56 56 56 56 56 56 56 56 57 49 43 42 43 45 45 47 48 48 46 46 46 44 42 40 40 39 37 37 37 37 36
52 52 53 53 53 53 54 54 55 56 56 56 55 55 55 55 56 56 56 56 55 56 56 56 55 46 41 46 44 43 44 44 48 48 47 47 46 45 43 41 40 36 35 32 35 36 37
52 52 52 52 53 53 54 55 55 56 56 56 55 55 55 56 56 56 56 55 55 55 56 56 48 44 37 49 43 42 42 43 44 45 47 45 45 42 41 37 34 35 30 32 33 36 36
52 52 53 52 53 54 54 54 55 56 56 55 55 55 55 56 56 56 56 54 55 53 50 46 43 35 38 35 40 40 39 43 44 44 45 45 44 39 38 34 24 27 29 30 30 35 39
51 51 52 52 52 53 54 54 55 55 55 55 55 55 55 56 56 55 49 46 38 39 40 34 34 32 34 38 42 40 42 42 43 41 37 42 33 31 30 30 30 30 30 30 31 35 37
51 51 52 52 52 53 53 54 54 54 55 55 56 55 54 54 55 55 50 39 41 41 32 36 34 34 36 38 36 39 41 37 36 32 33 29 30 30 30 29 30 29 29 28 28 34 33
51 52 52 53 53 53 53 54 54 54 54 54 55 55 55 54 54 48 42 43 46 45 37 34 35 34 37 37 34 36 37 36 32 31 31 26 26 28 27 28 25 25 24 25 26 29 33
52 52 52 53 53 53 53 53 53 54 55 55 55 55 55 54 47 43 41 45 45 45 34 35 31 36 38 39 35 38 39 35 32 30 28 26 29 28 28 24 24 22 26 28 28 27 24
52 53 53 53 53 54 54 54 54 54 55 54 54 54 55 54 44 43 44 44 43 43 12 28 30 38 37 34 32 35 38 36 29 27 26 23 26 26 26 25 27 24 27 27 27 27 26
54 54 54 55 55 55 54 54 54 55 55 54 54 54 54 47 46 44 46 45 43 32 11 26 32 31 30 34 33 34 36 36 34 30 30 27 29 28 26 28 27 27 27 28 28 27 21
57 57 57 57 56 56 56 56 56 55 55 54 54 53 52 46 43 45 46 44 33 20 26 23 26 29 28 27 28 29 29 26 24 20 21 27 30 29 29 26 26 25 25 20 16 19 18
53 53 54 54 55 57 57 56 56 56 55 54 53 53 51 44 47 47 45 35 20 27 21 28 27 28 25 25 24 27 23 25 28 24 23 23 19 24 29 25 24 26 25 19 12 16 16
50 50 51 52 53 53 55 57 56 56 55 54 52 47 47 48 48 46 41 30 24 32 24 25 26 23 24 25 22 21 20 23 22 24 17 23 22 24 26 26 26 22 22 23 20 22 19
48 49 49 50 50 51 52 53 55 56 55 54 48 45 46 47 47 45 37 32 34 26 28 27 19 20 18 20 19 19 18 22 25 26 26 22 21 23 25 28 29 27 27 19 23 15 16
48 48 48 47 48 48 49 50 52 54 56 53 46 39 45 47 46 41 32 33 34 28 29 26 24 21 20 19 19 19 16 22 26 26 26 25 23 22 24 23 20 23 22 21 21 21 16
46 45 46 46 46 46 47 47 49 52 55 49 44 31 46 47 36 38 36 36 33 30 32 31 29 26 22 20 20 19 18 18 27 26 24 26 23 20 18 24 24 24 22 20 19 15 17
42 43 44 44 45 45 45 46 47 48 51 47 40 41 46 45 28 34 36 29 30 32 32 30 31 30 28 23 21 21 21 29 29 27 24 23 20 18 19 22 24 23 23 22 20 20 17
41 40 42 43 42 42 43 44 45 46 49 50 41 34 40 40 39 34 32 31 28 33 32 32 30 30 28 26 25 22 22 28 31 29 33 29 21 18 16 17 21 22 22 23 21 21 20
41 41 44 43 44 44 43 44 44 44 46 49 43 36 36 32 35 35 33 30 29 29 33 32 29 29 28 25 25 24 25 27 32 35 29 26 23 23 23 24 24 24 23 23 22 21 20
41 41 41 44 43 41 41 41 43 45 46 47 43 38 40 36 34 31 35 33 31 30 30 30 29 29 28 24 24 22 24 23 22 31 28 28 22 25 22 24 25 23 23 23 23 23 22
40 41 41 41 42 42 41 40 42 44 45 42 42 41 42 37 33 30 29 31 32 31 31 30 30 29 29 29 28 26 25 24 25 29 29 27 26 23 20 24 25 22 21 22 23 22 21
40 40 39 40 40 41 41 40 41 42 44 44 42 41 37 32 33 33 31 31 31 29 27 29 30 29 30 31 30 30 30 27 26 26 29 26 25 25 22 24 15 23 23 24 22 22 22
41 39 38 40 41 42 41 40 39 40 43 42 44 40 38 30 29 29 32 34 33 32 29 26 26 30 31 29 27 25 25 23 25 29 27 26 26 23 21 21 22 23 22 22 20 21 23
41 41 40 38 40 40 40 40 40 38 41 42 42 43 39 33 26 29 30 31 30 32 34 31 32 33 31 30 28 24 22 21 23 25 29 29 27 24 23 21 20 22 21 22 22 18 24
42 41 40 40 40 40 41 41 40 39 39 41 41 41 38 33 32 31 28 27 34 35 32 32 32 31 32 30 27 25 23 24 22 23 24 25 25 24 23 22 24 28 23 23 17 20 27
41 42 41 39 40 41 41 40 41 40 38 39 39 40 37 33 32 33 31 30 30 31 28 32 31 32 32 29 27 27 25 23 22 25 26 25 23 23 23 20 20 25 23 20 24 29 30
40 40 42 42 39 40 41 40 40 41 39 39 37 39 39 35 33 34 33 33 36 35 32 32 30 31 32 31 30 28 26 24 22 20 27 24 25 25 25 25 28 25 27 29 30 30 30
Lifted_Index
10 10 10 10 10 10 10 10 10 10 9 9 9 9 9 9 9 9 8 8 8 7 7 7 7 8 9 9 10 9 9 7 6 6 5 5 4 4 3 3 2 2 2 1 1 1 1
10 10 10 10 10 10 10 10 10 9 9 9 9 9 9 9 9 9 8 8 8 7 7 7 7 8 9 9 9 9 8 7 6 6 5 5 4 3 3 3 2 2 2 1 1 1 1
10 10 10 10 10 10 10 10 10 9 9 9 9 9 9 9 9 9 8 8 8 8 8 7 7 8 8 8 9 9 8 7 6 6 5 5 4 3 2 2 2 2 1 1 1 1 1
10 10 10 10 10 10 10 10 9 9 9 9 9 9 9 9 9 9 9 8 8 8 7 7 8 8 8 8 9 9 8 7 6 5 5 4 4 3 2 2 2 1 1 1 1 1 0
10 10 10 10 10 10 10 10 9 9 9 9 9 10 9 9 9 9 9 9 8 8 8 8 8 8 8 8 8 8 8 7 6 5 4 4 3 3 2 2 2 2 2 1 1 1 1
10 9 10 10 10 10 9 9 9 9 9 9 9 10 9 9 9 9 9 9 9 8 8 8 8 8 8 8 8 8 8 7 6 5 4 3 3 3 2 2 2 2 2 1 1 1 1
9 9 9 9 9 9 9 9 9 9 9 9 9 9 9 9 9 9 9 9 9 8 8 8 8 8 8 8 8 8 7 7 6 5 5 4 3 3 3 2 2 2 2 1 1 1 1
9 9 9 9 9 9 9 9 9 9 9 9 9 9 9 9 9 9 9 9 9 8 8 8 8 8 8 8 8 7 7 7 6 6 5 4 4 3 3 3 2 2 2 2 1 1 1
9 9 9 8 8 8 8 9 9 9 8 8 8 8 9 9 9 9 9 9 9 8 7 6 7 7 8 8 7 7 7 7 6 6 5 5 4 4 4 3 3 2 2 2 1 1 1
8 8 8 8 8 8 8 8 8 8 8 8 8 8 8 8 8 8 8 9 9 7 5 5 6 6 7 7 7 7 7 7 6 5 5 5 4 4 4 4 4 3 2 2 1 1 1
7 7 7 7 7 7 7 8 8 8 8 8 8 8 8 8 8 8 8 9 8 6 4 4 5 6 6 6 6 6 6 6 6 5 5 4 4 5 5 5 4 4 3 2 1 1 1
6 6 5 5 6 6 6 7 7 7 7 8 8 8 8 8 7 8 8 8 6 4 3 3 5 5 5 5 5 5 5 5 5 4 4 4 4 5 5 5 5 4 4 2 2 1 1
5 5 5 4 5 5 5 6 6 6 7 8 8 8 8 7 7 8 7 6 4 3 3 4 4 4 4 4 4 4 4 4 4 3 3 3 3 4 4 5 5 5 4 2 1 1 1
6 6 6 5 5 4 4 4 5 6 6 7 8 8 7 7 7 7 6 4 3 3 3 4 4 4 4 4 4 4 3 3 4 3 3 2 3 3 4 4 5 5 4 2 1 1 1
8 8 8 7 7 6 5 4 4 5 6 7 7 7 7 7 7 6 5 3 2 3 3 4 4 3 3 3 3 3 3 3 4 4 3 3 2 3 4 4 4 4 4 3 2 2 1
10 10 10 9 9 8 6 5 5 5 5 6 7 7 6 6 7 6 4 3 3 3 4 4 3 3 3 3 3 3 3 4 4 4 4 3 3 3 3 4 4 4 3 3 3 2 1
12 12 12 11 11 10 9 7 6 5 5 6 6 6 6 6 6 5 4 3 3 4 4 4 3 3 3 3 3 3 3 4 4 4 4 4 3 3 3 3 3 3 3 3 3 2 2
14 14 13 13 13 12 11 10 9 7 6 6 6 6 6 6 6 5 4 4 4 4 4 4 4 3 3 3 3 3 3 4 4 4 4 4 3 3 3 3 4 3 3 3 3 2 2
15 14 14 14 14 13 13 12 11 9 7 7 7 7 6 6 6 5 5 5 5 5 5 4 4 4 3 3 3 3 3 4 4 4 4 4 3 3 2 3 4 3 3 3 3 2 2
15 15 14 14 14 14 14 13 13 11 9 7 7 7 7 7 6 6 6 6 5 5 5 4 4 4 3 3 3 3 3 3 3 4 4 4 3 3 2 3 3 3 3 3 3 2 2
15 14 14 14 14 14 14 14 13 12 9 8 7 7 7 7 7 6 6 6 6 5 5 5 5 4 4 3 3 3 3 3 3 3 3 3 3 3 3 3 3 3 3 3 3 3 2
14 14 13 13 13 14 14 14 13 12 11 9 7 7 7 7 7 7 6 6 6 6 5 5 5 4 4 4 3 3 3 3 3 3 3 3 3 3 3 3 3 3 3 3 3 3 3
13 13 13 13 13 13 14 14 14 13 12 10 9 9 8 8 8 7 7 6 6 6 5 5 5 4 4 4 3 3 4 4 3 3 3 3 3 3 3 3 3 3 3 3 3 4 4
13 13 13 13 13 13 14 14 14 14 13 12 11 10 9 9 9 9 8 7 6 6 6 6 5 5 4 4 3 3 4 4 4 3 3 3 3 3 3 3 3 3 3 4 4 4 4
12 13 13 13 13 13 13 14 14 13 13 12 12 11 11 10 10 10 9 8 8 7 6 6 6 5 5 4 4 4 4 4 4 4 3 3 3 3 3 3 3 3 3 4 4 4 4
12 12 13 13 13 13 13 13 13 13 13 12 12 12 12 12 12 12 12 10 9 7 6 6 6 5 5 4 4 4 4 4 4 4 4 3 3 3 3 3 3 3 3 3 4 4 4
12 12 12 13 13 13 13 13 13 13 13 12 12 12 13 13 14 14 13 12 10 8 7 6 6 5 5 5 4 4 4 4 4 4 4 3 3 3 2 3 3 3 3 3 4 4 4
12 12 12 12 12 12 13 13 13 13 13 13 12 12 13 14 14 14 13 12 10 9 8 7 6 5 5 5 4 4 4 4 4 4 4 3 3 3 2 3 3 3 3 3 3 4 4
12 12 11 11 12 12 12 12 13 13 13 13 13 12 12 13 14 14 13 12 10 9 8 7 6 5 5 4 4 4 4 4 4 4 4 3 3 3 2 2 2 2 2 3 3 3 4